Other Surface Observations
Issued by NWS

Home | Current Version | Previous Version | Text Only | Print | Product List | Glossary On
Versions: 1 2 3 4 5 6 7 8 9 10 11 12 13 14 15 16 17 18 19 20 21 22 23 24 25 26 27 28 29 30 31 32 33 34 35 36 37 38 39 40 41 42 43 44 45 46 47 48 49 50
000
SXUS52 KTAE 211818
OSOTAE
OSOTAE
North Florida/South Alabama/Southwest Georgia Weather Roundup
National Weather Service Tallahassee Florida
200 PM EDT TUE OCT 21 2014

Note: "fair" indicates few or no clouds below 12,000 feet with no
significant weather and/or obstructions to visibility.

!FLZ017-115-028-034-025-211900
...North Florida...

CITY           SKY/WX    TMP DP  RH WIND       PRES   REMARKS
TALLAHASSEE    MOSUNNY   81  55  40 VRB6      29.97F
APALACHICOLA   SUNNY     82  62  50 CALM      29.97F
PERRY          SUNNY     79  61  53 NW3       29.97F
CROSS CITY       N/A     83  63  50 VRB5      29.95F
JACKSONVILLE   MOSUNNY   81  60  48 VRB5      29.93F
$$

!FLZ112-006-005-002-011-211900
...Florida Panhandle...

CITY           SKY/WX    TMP DP  RH WIND       PRES   REMARKS
MARIANNA       SUNNY     79  54  41 VRB3      29.98F
BONIFAY        NOT AVBL
PANAMA CITY NW FAIR      80  52  37 NW7       29.98F
TYNDALL AFB    SUNNY     79  57  47 VRB2      29.99F
TYND DRONE APT FAIR     N/A N/A N/A MISG        N/A
DE FUNIAK SPR  FAIR      76  52  43 CALM      30.01F
EGLIN AFB      MOSUNNY   79  50  36 N6        29.99F
DESTIN         SUNNY     80  53  39 N8        29.99F
HURLBURT       SUNNY     79  45  30 CALM      29.98F
CRESTVIEW      SUNNY     79  51  37 VRB6      30.02F
PENSACOLA      SUNNY     77  50  38 N8        30.00F
$$

!ALZ063-066-211900
...South Alabama...

CITY           SKY/WX    TMP DP  RH WIND       PRES   REMARKS
DOTHAN         SUNNY     77  53  43 NW3       30.04F
OZARK CAIRNS   SUNNY     77  49  38 N6        30.00F
FT RUCKER HELI SUNNY     78  52  40 VRB6      29.99F
RUCKER HELI 3  FAIR      76  51  41 NW6       30.03F
RUCKER HELI 2  FAIR      77  52  41 N7        30.00F
FLORALA APT    SUNNY     79  50  36 VRB5      30.02F
ANDALUSIA      SUNNY     82  48  30 N6        30.01F
TROY           SUNNY     78  49  35 N7        30.02F
EUFALA         FAIR      78  47  33 VRB5      29.99F
MOBILE         SUNNY     76  51  41 N9        30.03F
$$

!GAZ120>161-211900
...Southwest and South Central Georgia...

CITY           SKY/WX    TMP DP  RH WIND       PRES   REMARKS
THOMASVILLE    FAIR      79  52  38 NW8       29.98F
BAINBRIDGE     SUNNY     81  52  36 N6        29.98F
MOODY AFB      SUNNY     78  55  44 W6        29.96F
VALDOSTA       SUNNY     80  55  42 VRB5      29.96F
MOULTRIE       SUNNY     77  54  44 NW6       29.98F
BLAKELY        SUNNY     79  50  36 CALM        N/A
ALBANY         SUNNY     77  53  43 W7        30.00F
TIFTON         FAIR      76  47  35 N6        29.97F
FITZGERALD     FAIR      79  47  32 NW6       29.99F
CORDELE        FAIR      77  51  39 N5        29.99F
AMERICUS       FAIR      75  50  41 NW7       30.00F
HOMERVILLE     FAIR      81  54  39 W8        29.95F
$$

!GMZ750-755-770-775-211900
...Coastal and Buoy Obs...

STATION/POSITION TIME  TEMP    WIND        PRES    VSBY  WAVE
                       AIR SEA DIR/SP/G                  HT/PER
                 (UTC) (F)     (DEG/KT/KT) (MB)    (MI)  (FT/S)
KEATON BEACH     1800   77     280/  6/  8 1014.6F
CEDAR KEY        1759   77      30/  2/  4 1014.5F
C TOWER          1800   73      60/  9/ 10 1014.9F
APALACHICOLA BUO 1800   77 81   40/ 10/ 12 1014.5F         1/ 3
PANAMA CITY BUOY 1703   75 81   20/ 12/ 14 1015.3F         2/ 4
MOBILE BUOY      1706   74 80   50/ 12/ 16 1016.9F         2/ 4
ORANGE BCH AL BU 1800   72 78   40/  8/ 12 1016.0F         2/ 4
$$



USA.gov is the U.S. government's official web portal to all federal, state and local government web resources and services.